This is the latest recevied weather packets stored in our database for station/object K4DNM. If no packets are shown the sender has not sent any weather packets the latest 10 day(s).
| Time | Temp. | Humidity | Pressure | Rain* | Wind** | Luminosity | Snow |
|---|---|---|---|---|---|---|---|
| 1788572668 | 25.56° C | 79% | 1013.7 hPa | 1.02 mm | - | 0 W/m² | - |
| 1788572366 | 26.11° C | 77% | 1013.9 hPa | 1.02 mm | - | 0 W/m² | - |
| 1788572094 | 26.67° C | 77% | 1014.2 hPa | 0.76 mm | - | 0 W/m² | - |
| 1788571791 | 27.78° C | 76% | 1014.5 hPa | 0.76 mm | - | 0 W/m² | - |
| 1788571457 | 28.33° C | 75% | 1014.5 hPa | 0 mm | - | 0 W/m² | - |
| 1788571151 | 29.44° C | 74% | 1014.3 hPa | 0 mm | - | 0 W/m² | - |
| 1788570845 | 30° C | 77% | 1013.5 hPa | 0 mm | - | 0 W/m² | - |
| 1788570539 | 30° C | 76% | 1013 hPa | 0 mm | - | 0 W/m² | - |
| 1788570237 | 30° C | 76% | 1012.8 hPa | 0 mm | - | 0 W/m² | - |
| 1788569936 | 29.44° C | 76% | 1012.7 hPa | 0 mm | - | 0 W/m² | - |
| 1788569634 | 29.44° C | 76% | 1012.6 hPa | 0 mm | - | 0 W/m² | - |
| 1788569369 | 29.44° C | 76% | 1012.5 hPa | 0 mm | - | 0 W/m² | - |
| 1788569031 | 29.44° C | 77% | 1012.1 hPa | 0 mm | - | 0 W/m² | - |
| 1788568733 | 29.44° C | 77% | 1011.8 hPa | 0 mm | - | 0 W/m² | - |
| 1788568427 | 29.44° C | 78% | 1011.6 hPa | 0 mm | - | 0 W/m² | - |
| 1788568127 | 29.44° C | 78% | 1011.6 hPa | 0 mm | - | 0 W/m² | - |
| 1788567824 | 29.44° C | 78% | 1011.7 hPa | 0 mm | - | 0 W/m² | - |
| 1788567525 | 29.44° C | 78% | 1011.7 hPa | 0 mm | - | 0 W/m² | - |
| 1788567222 | 29.44° C | 78% | 1011.7 hPa | 0 mm | - | 0 W/m² | - |
| 1788566921 | 29.44° C | 79% | 1011.7 hPa | 0 mm | - | 0 W/m² | - |
| 1788566669 | 29.44° C | 79% | 1011.6 hPa | 0 mm | - | 0 W/m² | - |
| 1788566317 | 29.44° C | 79% | 1011.6 hPa | 0 mm | - | 0 W/m² | - |
| 1788566050 | 30° C | 77% | 1011.7 hPa | 0 mm | - | 0 W/m² | - |
| 1788565754 | 30° C | 77% | 1011.7 hPa | 0 mm | - | 0 W/m² | - |
| 1788565451 | 30° C | 76% | 1011.8 hPa | 0 mm | - | 0 W/m² | - |
* Rain latest hour (hover to see other rain measurements)
** Current wind speed in m/s (hover to see current wind gust speed)